UAE816 OERK-OMDB

Flight info

Callsign UAE816
Flight time 1h 21m
Altitude 39000
Route RESAL T533 RAPMA DCT KUVSO DCT RIBOT M550 GOLGU M318 ATUDO/N0495F350 M318 RURAL Q317 LORID
Aircraft B77W/H-SDE1E2E3FGHIJ2J3J4J5M1RWXY/LB1D1

Departure

Time 2026-04-24 02:04
Airport King Khalid International Airport (OERK)

Arrival

Time 2026-04-24 03:25
Airport Dubai International Airport (OMDB)
Time Latitude Longitude Altitude Speed Heading
2026-04-24 01:51 24.94347 46.71290 2037 ft 0 kts 240°
2026-04-24 01:52 24.94355 46.71304 2046 ft 4 kts 244°
2026-04-24 01:52 24.94366 46.71332 2043 ft 4 kts 246°
2026-04-24 01:53 24.94379 46.71356 2046 ft 4 kts 215°
2026-04-24 01:53 24.94399 46.71366 2037 ft 4 kts 179°
2026-04-24 01:53 24.94421 46.71357 2046 ft 4 kts 143°
2026-04-24 01:53 24.94433 46.71348 2044 ft 1 kts 151°
2026-04-24 01:54 24.94435 46.71347 2044 ft 0 kts 151°
2026-04-24 01:56 24.94433 46.71348 2044 ft 1 kts 151°
2026-04-24 01:56 24.94428 46.71351 2042 ft 1 kts 151°
2026-04-24 01:56 24.94397 46.71370 2037 ft 8 kts 151°
2026-04-24 01:56 24.94349 46.71399 2045 ft 8 kts 151°
2026-04-24 01:57 24.94302 46.71430 2044 ft 8 kts 149°
2026-04-24 01:57 24.94254 46.71461 2046 ft 8 kts 149°
2026-04-24 01:57 24.94210 46.71496 2044 ft 8 kts 126°
2026-04-24 01:57 24.94217 46.71554 2044 ft 8 kts 63°
2026-04-24 01:58 24.94244 46.71607 2043 ft 8 kts 60°
2026-04-24 01:58 24.94272 46.71660 2046 ft 8 kts 60°
2026-04-24 01:58 24.94299 46.71712 2047 ft 9 kts 60°
2026-04-24 01:58 24.94330 46.71770 2047 ft 9 kts 60°
2026-04-24 01:59 24.94361 46.71829 2040 ft 9 kts 59°
2026-04-24 01:59 24.94398 46.71899 2041 ft 12 kts 60°
2026-04-24 01:59 24.94443 46.71988 2045 ft 5 kts 64°
2026-04-24 01:59 24.94441 46.72023 2044 ft 4 kts 115°
2026-04-24 02:00 24.94416 46.72045 2038 ft 5 kts 151°
2026-04-24 02:00 24.94384 46.72065 2046 ft 6 kts 152°
2026-04-24 02:00 24.94358 46.72082 2044 ft 0 kts 141°
2026-04-24 02:01 24.94354 46.72087 2042 ft 0 kts 133°
2026-04-24 02:01 24.94345 46.72113 2044 ft 10 kts 97°
2026-04-24 02:01 24.94368 46.72185 2039 ft 10 kts 63°
2026-04-24 02:01 24.94402 46.72249 2047 ft 9 kts 45°
2026-04-24 02:02 24.94444 46.72249 2042 ft 6 kts 339°
2026-04-24 02:02 24.94471 46.72234 2041 ft 0 kts 330°
2026-04-24 02:03 24.94472 46.72233 2045 ft 0 kts 330°
2026-04-24 02:03 24.94537 46.72193 2044 ft 28 kts 330°
2026-04-24 02:04 24.94888 46.71971 2043 ft 99 kts 330°
2026-04-24 02:04 24.95705 46.71458 2045 ft 173 kts 331°
2026-04-24 02:04 24.96824 46.70756 2629 ft 185 kts 329°
2026-04-24 02:04 24.97955 46.70011 3372 ft 196 kts 331°
2026-04-24 02:05 24.99165 46.69194 3910 ft 211 kts 329°
2026-04-24 02:05 25.00509 46.68299 4171 ft 244 kts 330°
2026-04-24 02:05 25.02064 46.67293 4490 ft 275 kts 330°
2026-04-24 02:05 25.03599 46.65972 5053 ft 286 kts 304°
2026-04-24 02:06 25.04276 46.63971 6070 ft 276 kts 268°
2026-04-24 02:06 25.03852 46.61995 7177 ft 263 kts 238°
2026-04-24 02:06 25.02651 46.60501 8156 ft 264 kts 218°
2026-04-24 02:06 25.01021 46.59532 9048 ft 272 kts 200°
2026-04-24 02:07 24.99140 46.59267 9922 ft 284 kts 180°
2026-04-24 02:07 24.97213 46.59848 10572 ft 305 kts 161°
2026-04-24 02:07 24.95203 46.60906 10825 ft 336 kts 158°
2026-04-24 02:07 24.93034 46.62147 11044 ft 367 kts 156°
2026-04-24 02:08 24.90715 46.63499 11574 ft 384 kts 156°
2026-04-24 02:08 24.88320 46.64892 12420 ft 394 kts 156°
2026-04-24 02:08 24.85871 46.66301 13404 ft 400 kts 156°
2026-04-24 02:08 24.83382 46.67715 14330 ft 406 kts 156°
2026-04-24 02:09 24.80854 46.69136 15275 ft 410 kts 157°
2026-04-24 02:09 24.78296 46.70563 16231 ft 414 kts 157°
2026-04-24 02:09 24.75713 46.71997 17184 ft 418 kts 158°
2026-04-24 02:09 24.73102 46.73442 18110 ft 423 kts 158°
2026-04-24 02:10 24.70450 46.74908 18929 ft 429 kts 158°
2026-04-24 02:10 24.67762 46.76393 19682 ft 434 kts 158°
2026-04-24 02:10 24.65047 46.77892 20448 ft 440 kts 158°
2026-04-24 02:10 24.62298 46.79410 21232 ft 445 kts 158°
2026-04-24 02:11 24.59551 46.80926 21975 ft 450 kts 158°
2026-04-24 02:11 24.56702 46.82498 22703 ft 456 kts 158°
2026-04-24 02:11 24.53889 46.84050 23392 ft 461 kts 158°
2026-04-24 02:11 24.51003 46.85641 23979 ft 466 kts 158°
2026-04-24 02:12 24.48092 46.87245 24596 ft 470 kts 158°
2026-04-24 02:12 24.45162 46.88860 25235 ft 472 kts 158°
2026-04-24 02:12 24.42221 46.90480 25857 ft 475 kts 158°
2026-04-24 02:12 24.39253 46.92113 26449 ft 479 kts 158°
2026-04-24 02:13 24.36266 46.93755 26993 ft 483 kts 158°
2026-04-24 02:13 24.33247 46.95414 27507 ft 487 kts 158°
2026-04-24 02:13 24.30205 46.97085 28033 ft 491 kts 158°
2026-04-24 02:13 24.27139 46.98769 28539 ft 495 kts 158°
2026-04-24 02:14 24.24054 47.00463 29033 ft 498 kts 158°
2026-04-24 02:14 24.20945 47.02169 29496 ft 501 kts 158°
2026-04-24 02:14 24.17816 47.03884 29968 ft 503 kts 158°
2026-04-24 02:14 24.14724 47.05716 30362 ft 509 kts 152°
2026-04-24 02:15 24.11900 47.08087 30848 ft 515 kts 142°
2026-04-24 02:15 24.09409 47.10916 31414 ft 518 kts 134°
2026-04-24 02:15 24.07314 47.14138 31947 ft 521 kts 126°
2026-04-24 02:15 24.05415 47.17517 32422 ft 522 kts 125°
2026-04-24 02:16 24.03538 47.20917 32911 ft 522 kts 125°
2026-04-24 02:16 24.01662 47.24310 33438 ft 520 kts 125°
2026-04-24 02:16 23.99779 47.27679 33971 ft 518 kts 126°
2026-04-24 02:16 23.97882 47.31034 34339 ft 519 kts 126°
2026-04-24 02:17 23.95962 47.34398 34590 ft 523 kts 126°
2026-04-24 02:17 23.94022 47.37776 34833 ft 527 kts 127°
2026-04-24 02:17 23.92091 47.41129 35132 ft 529 kts 127°
2026-04-24 02:17 23.90128 47.44539 35401 ft 531 kts 127°
2026-04-24 02:18 23.88154 47.47967 35694 ft 534 kts 127°
2026-04-24 02:18 23.86174 47.51405 35965 ft 536 kts 127°
2026-04-24 02:18 23.84185 47.54859 36273 ft 538 kts 127°
2026-04-24 02:18 23.82191 47.58321 36524 ft 540 kts 127°
2026-04-24 02:19 23.80186 47.61799 36761 ft 543 kts 127°
2026-04-24 02:19 23.78167 47.65300 37013 ft 545 kts 127°
2026-04-24 02:19 23.76141 47.68809 37294 ft 547 kts 127°
2026-04-24 02:19 23.74111 47.72325 37573 ft 549 kts 128°
2026-04-24 02:20 23.72072 47.75853 37846 ft 551 kts 128°
2026-04-24 02:20 23.70023 47.79394 38026 ft 554 kts 128°
2026-04-24 02:20 23.67960 47.82956 38256 ft 557 kts 128°
2026-04-24 02:20 23.65890 47.86530 38527 ft 558 kts 128°
2026-04-24 02:21 23.63815 47.90110 38780 ft 559 kts 128°
2026-04-24 02:21 23.61732 47.93703 38899 ft 562 kts 128°
2026-04-24 02:21 23.57552 48.00903 38940 ft 560 kts 128°
2026-04-24 02:22 23.53405 48.08040 38933 ft 556 kts 128°
2026-04-24 02:22 23.49257 48.15160 38940 ft 557 kts 128°
2026-04-24 02:23 23.45100 48.22288 38944 ft 558 kts 128°
2026-04-24 02:23 23.41005 48.29483 38918 ft 563 kts 122°
2026-04-24 02:24 23.38325 48.37555 38941 ft 572 kts 104°
2026-04-24 02:24 23.37494 48.46176 38945 ft 574 kts 91°
2026-04-24 02:25 23.37292 48.54880 38935 ft 576 kts 91°
2026-04-24 02:25 23.37029 48.63551 38938 ft 577 kts 91°
2026-04-24 02:26 23.36673 48.72265 38935 ft 576 kts 92°
2026-04-24 02:26 23.36295 48.80957 38929 ft 574 kts 92°
2026-04-24 02:27 23.35925 48.89622 38912 ft 573 kts 92°
2026-04-24 02:27 23.35556 48.98269 38926 ft 571 kts 92°
2026-04-24 02:28 23.35183 49.06906 38930 ft 571 kts 92°
2026-04-24 02:28 23.34761 49.15529 38941 ft 570 kts 92°
2026-04-24 02:29 23.34300 49.24150 38937 ft 571 kts 92°
2026-04-24 02:29 23.33913 49.31371 38936 ft 571 kts 92°
2026-04-24 02:30 23.33457 49.39933 38926 ft 570 kts 92°
2026-04-24 02:30 23.32999 49.48538 38931 ft 570 kts 92°
2026-04-24 02:31 23.32536 49.57143 38920 ft 569 kts 92°
2026-04-24 02:31 23.32069 49.65735 38929 ft 569 kts 92°
2026-04-24 02:32 23.31597 49.74320 38932 ft 569 kts 92°
2026-04-24 02:32 23.31120 49.82900 38924 ft 568 kts 92°
2026-04-24 02:33 23.30639 49.91480 38921 ft 568 kts 92°
2026-04-24 02:33 23.30153 50.00052 38915 ft 567 kts 92°
2026-04-24 02:34 23.29664 50.08607 38914 ft 567 kts 92°
2026-04-24 02:34 23.29170 50.17155 38915 ft 566 kts 92°
2026-04-24 02:35 23.28676 50.25634 38905 ft 565 kts 92°
2026-04-24 02:35 23.28174 50.34157 38909 ft 565 kts 92°
2026-04-24 02:36 23.27668 50.42687 38928 ft 565 kts 92°
2026-04-24 02:36 23.27157 50.51218 38908 ft 565 kts 92°
2026-04-24 02:37 23.26641 50.59752 38912 ft 565 kts 92°
2026-04-24 02:37 23.26120 50.68286 38927 ft 565 kts 92°
2026-04-24 02:38 23.25596 50.76805 38914 ft 565 kts 92°
2026-04-24 02:38 23.25067 50.85320 38909 ft 564 kts 92°
2026-04-24 02:39 23.24535 50.93812 38905 ft 563 kts 92°
2026-04-24 02:39 23.23999 51.02295 38912 ft 562 kts 92°
2026-04-24 02:40 23.23459 51.10771 38902 ft 562 kts 92°
2026-04-24 02:40 23.22915 51.19240 38915 ft 562 kts 92°
2026-04-24 02:41 23.22366 51.27717 38902 ft 562 kts 92°
2026-04-24 02:41 23.21815 51.36142 38916 ft 562 kts 92°
2026-04-24 02:42 23.21257 51.44623 38908 ft 563 kts 92°
2026-04-24 02:42 23.20693 51.53101 38908 ft 562 kts 92°
2026-04-24 02:43 23.20126 51.61578 38913 ft 562 kts 92°
2026-04-24 02:43 23.19553 51.70050 38902 ft 562 kts 92°
2026-04-24 02:44 23.18977 51.78517 38909 ft 562 kts 92°
2026-04-24 02:44 23.18397 51.86984 38912 ft 562 kts 92°
2026-04-24 02:45 23.17812 51.95449 38902 ft 562 kts 92°
2026-04-24 02:45 23.17222 52.03907 38907 ft 561 kts 92°
2026-04-24 02:46 23.16629 52.12361 38908 ft 561 kts 92°
2026-04-24 02:46 23.16032 52.20805 38899 ft 561 kts 92°
2026-04-24 02:47 23.15431 52.29247 38902 ft 560 kts 92°
2026-04-24 02:47 23.15120 52.37677 38896 ft 556 kts 83°
2026-04-24 02:48 23.16222 52.45919 38904 ft 548 kts 71°
2026-04-24 02:48 23.18797 52.53597 38902 ft 535 kts 56°
2026-04-24 02:49 23.22516 52.60544 38907 ft 532 kts 52°
2026-04-24 02:49 23.26197 52.67538 38896 ft 534 kts 53°
2026-04-24 02:50 23.29802 52.74554 38899 ft 535 kts 54°
2026-04-24 02:50 23.33429 52.81630 38907 ft 536 kts 54°
2026-04-24 02:51 23.37065 52.88711 38899 ft 536 kts 54°
2026-04-24 02:51 23.40696 52.95789 38902 ft 536 kts 54°
2026-04-24 02:52 23.44402 53.02815 38901 ft 534 kts 52°
2026-04-24 02:52 23.48154 53.09780 38895 ft 533 kts 52°
2026-04-24 02:53 23.51887 53.16745 38896 ft 532 kts 52°
2026-04-24 02:53 23.55600 53.23715 38897 ft 531 kts 53°
2026-04-24 02:54 23.59297 53.30675 38900 ft 530 kts 53°
2026-04-24 02:54 23.62987 53.37627 38896 ft 529 kts 53°
2026-04-24 02:55 23.66670 53.44573 38896 ft 529 kts 53°
2026-04-24 02:55 23.70346 53.51517 38897 ft 528 kts 53°
2026-04-24 02:56 23.74030 53.58457 38891 ft 528 kts 53°
2026-04-24 02:56 23.77720 53.65395 38886 ft 529 kts 53°
2026-04-24 02:57 23.81411 53.72349 38895 ft 529 kts 53°
2026-04-24 02:57 23.85099 53.79314 38894 ft 530 kts 53°
2026-04-24 02:58 23.88788 53.86290 38889 ft 530 kts 53°
2026-04-24 02:58 23.92471 53.93268 38889 ft 530 kts 53°
2026-04-24 02:59 23.96130 54.00207 38880 ft 530 kts 53°
2026-04-24 02:59 23.96280 54.00493 38881 ft 530 kts 53°
2026-04-24 03:02 23.98223 54.04181 38894 ft 530 kts 53°
2026-04-24 03:03 24.01886 54.11175 38876 ft 530 kts 53°
2026-04-24 03:03 24.05513 54.18197 38692 ft 533 kts 54°
2026-04-24 03:04 24.07358 54.21766 37829 ft 541 kts 54°
2026-04-24 03:04 24.09226 54.25387 37067 ft 538 kts 55°
2026-04-24 03:04 24.11038 54.28906 36301 ft 536 kts 56°
2026-04-24 03:04 24.12864 54.32451 35522 ft 535 kts 56°
2026-04-24 03:05 24.14676 54.35971 34607 ft 522 kts 57°
2026-04-24 03:05 24.16424 54.39374 33615 ft 504 kts 58°
2026-04-24 03:05 24.18116 54.42663 32541 ft 488 kts 58°
2026-04-24 03:05 24.19759 54.45855 31492 ft 476 kts 58°
2026-04-24 03:06 24.21411 54.49055 30464 ft 491 kts 58°
2026-04-24 03:06 24.23344 54.52199 29715 ft 502 kts 49°
2026-04-24 03:06 24.25687 54.55052 28985 ft 503 kts 42°
2026-04-24 03:06 24.28301 54.57555 28255 ft 496 kts 34°
2026-04-24 03:07 24.31275 54.59347 27499 ft 483 kts 16°
2026-04-24 03:07 24.34446 54.60434 26655 ft 476 kts 15°
2026-04-24 03:07 24.37589 54.61570 25823 ft 476 kts 16°
2026-04-24 03:07 24.40710 54.62739 25146 ft 473 kts 16°
2026-04-24 03:08 24.43807 54.63902 24544 ft 468 kts 16°
2026-04-24 03:08 24.49920 54.66160 23306 ft 460 kts 16°
2026-04-24 03:08 24.52944 54.67261 22599 ft 456 kts 16°
2026-04-24 03:09 24.55941 54.68348 21980 ft 451 kts 16°
2026-04-24 03:09 24.58908 54.69422 21376 ft 446 kts 16°
2026-04-24 03:09 24.61835 54.70504 20758 ft 441 kts 19°
2026-04-24 03:09 24.64602 54.71952 20122 ft 441 kts 29°
2026-04-24 03:10 24.67108 54.73884 19540 ft 438 kts 37°
2026-04-24 03:10 24.69348 54.76130 19002 ft 434 kts 45°
2026-04-24 03:10 24.71407 54.78544 18458 ft 431 kts 46°
2026-04-24 03:10 24.73447 54.80938 17870 ft 427 kts 46°
2026-04-24 03:11 24.75474 54.83306 17254 ft 423 kts 45°
2026-04-24 03:11 24.77489 54.85650 16703 ft 420 kts 45°
2026-04-24 03:11 24.79490 54.87970 16113 ft 416 kts 45°
2026-04-24 03:11 24.81478 54.90272 15534 ft 413 kts 45°
2026-04-24 03:12 24.83454 54.92558 14978 ft 410 kts 45°
2026-04-24 03:12 24.85411 54.94823 14437 ft 407 kts 46°
2026-04-24 03:12 24.87206 54.97224 13887 ft 405 kts 54°
2026-04-24 03:12 24.88656 54.99874 13356 ft 402 kts 62°
2026-04-24 03:13 24.89819 55.02704 13150 ft 409 kts 69°
2026-04-24 03:13 24.90837 55.05623 13069 ft 406 kts 69°
2026-04-24 03:13 24.91849 55.08505 13062 ft 402 kts 69°
2026-04-24 03:13 24.92857 55.11363 12890 ft 398 kts 69°
2026-04-24 03:14 24.93864 55.14204 12533 ft 398 kts 69°
2026-04-24 03:14 24.94859 55.17006 12218 ft 392 kts 69°
2026-04-24 03:14 24.95812 55.19688 12034 ft 362 kts 69°
2026-04-24 03:14 24.96698 55.22179 11858 ft 338 kts 69°
2026-04-24 03:15 24.97529 55.24519 11574 ft 320 kts 69°
2026-04-24 03:15 24.98330 55.26776 11081 ft 314 kts 69°
2026-04-24 03:15 24.99140 55.29058 10689 ft 316 kts 69°
2026-04-24 03:15 24.99932 55.31292 10269 ft 318 kts 69°
2026-04-24 03:16 25.00477 55.32832 9995 ft 320 kts 70°
2026-04-24 03:16 25.01553 55.35869 9420 ft 322 kts 70°
2026-04-24 03:16 25.02369 55.38176 8985 ft 324 kts 70°
2026-04-24 03:16 25.03184 55.40478 8537 ft 316 kts 70°
2026-04-24 03:17 25.03967 55.42691 8084 ft 308 kts 70°
2026-04-24 03:17 25.04747 55.44898 7662 ft 310 kts 70°
2026-04-24 03:17 25.05532 55.47119 7255 ft 312 kts 70°
2026-04-24 03:17 25.06320 55.49352 6842 ft 314 kts 70°
2026-04-24 03:18 25.07040 55.51594 6397 ft 302 kts 79°
2026-04-24 03:18 25.07127 55.53112 6067 ft 287 kts 99°
2026-04-24 03:18 25.06615 55.55139 5652 ft 276 kts 117°
2026-04-24 03:18 25.05810 55.57060 5230 ft 276 kts 107°
2026-04-24 03:19 25.05777 55.59154 4784 ft 275 kts 75°
2026-04-24 03:19 25.06669 55.60936 4325 ft 261 kts 46°
2026-04-24 03:19 25.08083 55.62091 3887 ft 250 kts 18°
2026-04-24 03:19 25.09764 55.62178 3532 ft 246 kts 342°
2026-04-24 03:20 25.11256 55.61254 3289 ft 251 kts 318°
2026-04-24 03:20 25.12385 55.59803 2970 ft 244 kts 302°
2026-04-24 03:20 25.13254 55.58258 2627 ft 230 kts 300°
2026-04-24 03:20 25.14055 55.56782 2276 ft 218 kts 299°
2026-04-24 03:21 25.14799 55.55393 2066 ft 200 kts 300°
2026-04-24 03:21 25.15498 55.54122 2045 ft 190 kts 301°
2026-04-24 03:21 25.16182 55.52886 2081 ft 189 kts 300°
2026-04-24 03:21 25.16848 55.51682 2035 ft 178 kts 300°
2026-04-24 03:22 25.17467 55.50565 2012 ft 163 kts 300°
2026-04-24 03:22 25.18031 55.49547 2034 ft 151 kts 300°
2026-04-24 03:22 25.18590 55.48534 1839 ft 155 kts 301°
2026-04-24 03:22 25.19144 55.47537 1663 ft 150 kts 301°
2026-04-24 03:23 25.19681 55.46565 1466 ft 147 kts 300°
2026-04-24 03:23 25.20212 55.45607 1283 ft 146 kts 301°
2026-04-24 03:23 25.20748 55.44651 1078 ft 145 kts 300°
2026-04-24 03:23 25.21262 55.43699 893 ft 144 kts 301°
2026-04-24 03:24 25.21780 55.42745 727 ft 147 kts 302°
2026-04-24 03:24 25.22314 55.41791 540 ft 146 kts 303°
2026-04-24 03:24 25.22827 55.40857 363 ft 143 kts 302°
2026-04-24 03:24 25.23358 55.39909 164 ft 144 kts 303°
2026-04-24 03:25 25.23862 55.38990 40 ft 129 kts 303°
2026-04-24 03:25 25.24273 55.38254 32 ft 89 kts 302°
2026-04-24 03:25 25.24510 55.37830 28 ft 53 kts 302°
2026-04-24 03:25 25.24694 55.37497 27 ft 39 kts 301°
2026-04-24 03:26 25.24770 55.37297 29 ft 23 kts 282°
2026-04-24 03:26 25.24783 55.37157 29 ft 14 kts 271°
2026-04-24 03:26 25.24784 55.37093 28 ft 0 kts 271°
2026-04-24 03:26 25.24784 55.37087 28 ft 2 kts 271°
2026-04-24 03:27 25.24785 55.37054 27 ft 6 kts 271°
2026-04-24 03:27 25.24788 55.37003 27 ft 8 kts 279°
2026-04-24 03:27 25.24806 55.36943 27 ft 9 kts 293°
2026-04-24 03:27 25.24834 55.36878 27 ft 10 kts 295°
2026-04-24 03:28 25.24858 55.36803 27 ft 11 kts 284°
2026-04-24 03:28 25.24876 55.36717 26 ft 12 kts 286°
2026-04-24 03:28 25.24912 55.36630 26 ft 12 kts 300°
2026-04-24 03:28 25.24957 55.36549 26 ft 13 kts 301°
2026-04-24 03:29 25.25004 55.36464 26 ft 13 kts 301°
2026-04-24 03:29 25.25055 55.36374 26 ft 14 kts 302°
2026-04-24 03:29 25.25109 55.36279 26 ft 15 kts 302°
2026-04-24 03:29 25.25165 55.36181 26 ft 15 kts 302°
2026-04-24 03:30 25.25221 55.36082 26 ft 15 kts 302°
2026-04-24 03:30 25.25277 55.35982 29 ft 15 kts 302°
2026-04-24 03:30 25.25333 55.35882 29 ft 15 kts 302°
2026-04-24 03:30 25.25389 55.35782 27 ft 15 kts 301°
2026-04-24 03:31 25.25430 55.35703 29 ft 8 kts 288°
2026-04-24 03:31 25.25401 55.35654 28 ft 8 kts 215°
2026-04-24 03:31 25.25348 55.35617 30 ft 10 kts 211°
2026-04-24 03:31 25.25307 55.35589 29 ft 4 kts 211°
2026-04-24 03:32 25.25295 55.35581 29 ft 2 kts 211°
2026-04-24 03:32 25.25284 55.35574 30 ft 1 kts 211°